K6OUA-11 Weather Reports


Display with metric or nautical units.
time (UTC)temp
F
wind
direction
speed
MPH
gust
MPH
rain 1hr
in
rain 24hr
in
rain mn
in
humidity
%
barometer
mb
20180118200157 77 272 6.0 6.0 0.00 0.00 0.00 36 1012.4
20180118195858 77 242 5.0 7.0 0.00 0.00 0.00 37 1012.6
20180118195556 78 249 6.0 7.0 0.00 0.00 0.00 37 1012.7
20180118195253 78 245 6.0 8.0 0.00 0.00 0.00 36 1012.7
20180118194954 78 232 4.0 8.0 0.00 0.00 0.00 35 1012.6
20180118194653 78 249 4.0 6.0 0.00 0.00 0.00 35 1012.7
20180118194351 78 263 4.0 6.0 0.00 0.00 0.00 36 1012.6
20180118194051 79 267 5.0 6.0 0.00 0.00 0.00 35 1012.7
20180118193748 79 252 4.0 6.0 0.00 0.00 0.00 35 1012.8
20180118193448 79 261 4.0 7.0 0.00 0.00 0.00 35 1012.7
20180118192848 79 251 2.0 5.0 0.00 0.00 0.00 34 1012.8
20180118192544 79 236 1.0 7.0 0.00 0.00 0.00 34 1012.8
20180118192242 79 236 3.0 6.0 0.00 0.00 0.00 34 1012.9
20180118191946 79 250 4.0 4.0 0.00 0.00 0.00 33 1012.9
20180118191641 79 249 4.0 6.0 0.00 0.00 0.00 34 1012.9
20180118191340 79 247 4.0 5.0 0.00 0.00 0.00 34 1012.9
20180118191039 79 261 4.0 5.0 0.00 0.00 0.00 33 1012.9
20180118190738 80 238 2.0 4.0 0.00 0.00 0.00 33 1013.0
20180118190136 80 261 5.0 5.0 0.00 0.00 0.00 33 1013.0
20180118185836 80 245 2.0 5.0 0.00 0.00 0.00 33 1013.0
20180118185535 80 267 3.0 6.0 0.00 0.00 0.00 33 1013.0
20180118185233 80 267 3.0 6.0 0.00 0.00 0.00 33 1013.1
20180118184631 80 256 2.0 7.0 0.00 0.00 0.00 34 1013.2
20180118184330 80 245 3.0 5.0 0.00 0.00 0.00 33 1013.1
20180118183730 80 256 3.0 6.0 0.00 0.00 0.00 33 1013.2
20180118183426 81 247 2.0 4.0 0.00 0.00 0.00 33 1013.3
20180118183127 81 247 2.0 2.0 0.00 0.00 0.00 34 1013.2
20180118182824 81 231 0.0 5.0 0.00 0.00 0.00 34 1013.3
20180118182222 81 238 2.0 4.0 0.00 0.00 0.00 34 1013.2
20180118181921 81 249 3.0 4.0 0.00 0.00 0.00 35 1013.1
20180118181620 81 225 1.0 6.0 0.00 0.00 0.00 35 1013.1
20180118181318 81 249 2.0 3.0 0.00 0.00 0.00 36 1013.1
20180118181018 81 270 3.0 3.0 0.00 0.00 0.00 36 1013.1
20180118180716 81 225 0.0 1.0 0.00 0.00 0.00 37 1013.2
20180118180414 81 270 1.0 1.0 0.00 0.00 0.00 37 1013.3
20180118180113 80 261 1.0 1.0 0.00 0.00 0.00 37 1013.2
20180118175815 80 249 0.0 1.0 0.00 0.00 0.00 37 1013.2
20180118174909 78 225 0.0 1.0 0.00 0.00 0.00 39 1013.1
20180118174609 78 225 0.0 0.0 0.00 0.00 0.00 40 1013.3
20180118174309 78 213 0.0 0.0 0.00 0.00 0.00 40 1013.0
20180118174006 77 238 0.0 0.0 0.00 0.00 0.00 41 1013.0
20180118173705 76 225 0.0 1.0 0.00 0.00 0.00 41 1013.0
20180118173405 76 225 0.0 0.0 0.00 0.00 0.00 42 1013.0
20180118173103 75 225 0.0 0.0 0.00 0.00 0.00 42 1013.1
20180118172801 75 225 0.0 0.0 0.00 0.00 0.00 43 1013.1
20180118172503 74 225 0.0 0.0 0.00 0.00 0.00 44 1013.2
20180118172200 73 225 0.0 0.0 0.00 0.00 0.00 44 1013.1
20180118171901 72 225 0.0 0.0 0.00 0.00 0.00 44 1013.0
20180118171558 72 225 0.0 1.0 0.00 0.00 0.00 45 1013.0
20180118171257 71 225 0.0 0.0 0.00 0.00 0.00 45 1012.9
20180118170654 69 225 0.0 1.0 0.00 0.00 0.00 47 1013.0
20180118170354 68 220 0.0 1.0 0.00 0.00 0.00 46 1012.9
20180118170056 68 225 0.0 1.0 0.00 0.00 0.00 47 1012.8
20180118165753 67 148 1.0 2.0 0.00 0.00 0.00 47 1012.6
20180118165454 66 202 0.0 2.0 0.00 0.00 0.00 48 1012.8
20180118165149 65 180 0.0 2.0 0.00 0.00 0.00 49 1012.8
20180118164245 63 128 2.0 4.0 0.00 0.00 0.00 49 1012.7
20180118163943 63 114 3.0 4.0 0.00 0.00 0.00 49 1012.7
20180118163642 63 123 4.0 4.0 0.00 0.00 0.00 49 1012.6
20180118163342 62 112 5.0 6.0 0.00 0.00 0.00 49 1012.5
20180118163041 62 90 5.0 6.0 0.00 0.00 0.00 49 1012.5
20180118162740 62 101 4.0 5.0 0.00 0.00 0.00 49 1012.5
20180118162438 62 87 4.0 6.0 0.00 0.00 0.00 49 1012.4
20180118162138 61 90 5.0 6.0 0.00 0.00 0.00 49 1012.5
20180118161536 61 103 5.0 5.0 0.00 0.00 0.00 50 1012.7
20180118161233 60 117 3.0 3.0 0.00 0.00 0.00 51 1012.6
20180118160933 60 110 3.0 3.0 0.00 0.00 0.00 50 1012.6
20180118160633 60 126 2.0 3.0 0.00 0.00 0.00 50 1012.6
20180118160331 59 114 2.0 4.0 0.00 0.00 0.00 51 1012.6
20180118160028 59 108 3.0 4.0 0.00 0.00 0.00 51 1012.7
20180118155729 59 101 3.0 3.0 0.00 0.00 0.00 51 1012.6
20180118155429 59 108 3.0 4.0 0.00 0.00 0.00 51 1012.6
20180118155125 58 96 3.0 4.0 0.00 0.00 0.00 51 1012.5
20180118154524 58 123 3.0 5.0 0.00 0.00 0.00 52 1012.5
20180118154223 58 103 2.0 4.0 0.00 0.00 0.00 52 1012.4
20180118153922 58 87 4.0 4.0 0.00 0.00 0.00 52 1012.4
20180118153620 57 126 3.0 4.0 0.00 0.00 0.00 52 1012.5
20180118153320 57 126 2.0 6.0 0.00 0.00 0.00 52 1012.3
20180118153019 57 90 4.0 6.0 0.00 0.00 0.00 52 1012.4
20180118152718 57 87 3.0 5.0 0.00 0.00 0.00 52 1012.3
20180118152415 57 90 4.0 5.0 0.00 0.00 0.00 52 1012.3
20180118152117 57 92 3.0 5.0 0.00 0.00 0.00 52 1012.3
20180118151813 56 90 4.0 5.0 0.00 0.00 0.00 52 1012.4
20180118151513 56 101 2.0 6.0 0.00 0.00 0.00 52 1012.4
20180118151212 56 94 4.0 5.0 0.00 0.00 0.00 52 1012.3
20180118150910 56 90 4.0 7.0 0.00 0.00 0.00 52 1012.3
20180118150608 56 78 4.0 7.0 0.00 0.00 0.00 52 1012.4
20180118150307 56 83 6.0 7.0 0.00 0.00 0.00 53 1012.3
20180118150007 56 87 4.0 6.0 0.00 0.00 0.00 53 1012.3
20180118145705 56 94 5.0 6.0 0.00 0.00 0.00 53 1012.2
20180118145103 56 92 3.0 4.0 0.00 0.00 0.00 52 1012.3
20180118144803 56 92 3.0 5.0 0.00 0.00 0.00 52 1012.4
20180118144501 55 90 4.0 4.0 0.00 0.00 0.00 53 1012.4
20180118144200 55 96 4.0 4.0 0.00 0.00 0.00 53 1012.4
20180118143900 55 92 3.0 4.0 0.00 0.00 0.00 53 1012.4
20180118143559 55 85 3.0 4.0 0.00 0.00 0.00 53 1012.4
20180118142955 56 128 1.0 3.0 0.00 0.00 0.00 52 1012.4
20180118142654 56 121 2.0 3.0 0.00 0.00 0.00 52 1012.3
20180118142353 56 121 3.0 3.0 0.00 0.00 0.00 52 1012.4
20180118142052 56 103 2.0 3.0 0.00 0.00 0.00 52 1012.4
20180118141751 56 92 3.0 5.0 0.00 0.00 0.00 52 1012.3
20180118141450 55 90 4.0 5.0 0.00 0.00 0.00 52 1012.2
20180118141149 55 92 3.0 4.0 0.00 0.00 0.00 53 1012.3
20180118140850 55 90 4.0 4.0 0.00 0.00 0.00 52 1012.3
20180118140546 55 92 4.0 5.0 0.00 0.00 0.00 52 1012.2
20180118135944 55 96 4.0 6.0 0.00 0.00 0.00 52 1012.2
20180118135645 55 103 3.0 4.0 0.00 0.00 0.00 52 1012.3
20180118135342 55 90 3.0 4.0 0.00 0.00 0.00 52 1012.2
20180118135042 55 90 2.0 3.0 0.00 0.00 0.00 52 1012.3
20180118134740 55 96 2.0 3.0 0.00 0.00 0.00 51 1012.5
20180118134137 56 155 1.0 1.0 0.00 0.00 0.00 49 1012.4
20180118133838 56 180 0.0 1.0 0.00 0.00 0.00 50 1012.5
20180118133234 57 135 1.0 2.0 0.00 0.00 0.00 49 1012.4
20180118132933 57 135 1.0 3.0 0.00 0.00 0.00 49 1012.2
20180118132633 57 65 2.0 3.0 0.00 0.00 0.00 49 1012.3
20180118132033 57 60 2.0 3.0 0.00 0.00 0.00 49 1012.1
20180118131730 57 70 3.0 4.0 0.00 0.00 0.00 49 1012.1
20180118131429 57 78 3.0 5.0 0.00 0.00 0.00 49 1012.0
20180118131126 57 90 5.0 5.0 0.00 0.00 0.00 49 1012.0
20180118130825 57 108 3.0 4.0 0.00 0.00 0.00 48 1012.0
20180118130524 57 108 2.0 3.0 0.00 0.00 0.00 48 1012.1
20180118130225 57 135 1.0 2.0 0.00 0.00 0.00 48 1012.1
20180118125922 57 45 2.0 2.0 0.00 0.00 0.00 48 1012.1
20180118125621 58 45 1.0 1.0 0.00 0.00 0.00 47 1012.0
20180118125323 58 78 1.0 2.0 0.00 0.00 0.00 47 1012.3
20180118125019 58 180 0.0 2.0 0.00 0.00 0.00 46 1012.2
20180118124718 58 261 0.0 0.0 0.00 0.00 0.00 46 1012.3
20180118124416 59 225 0.0 0.0 0.00 0.00 0.00 46 1012.3
20180118124115 59 173 0.0 1.0 0.00 0.00 0.00 46 1012.4
20180118123817 59 295 0.0 1.0 0.00 0.00 0.00 46 1012.3
20180118123513 60 270 0.0 0.0 0.00 0.00 0.00 45 1012.3
20180118123212 60 315 0.0 0.0 0.00 0.00 0.00 46 1012.4
20180118122911 60 225 0.0 3.0 0.00 0.00 0.00 45 1012.4
20180118122309 60 121 1.0 4.0 0.00 0.00 0.00 45 1012.2
20180118122008 60 96 3.0 4.0 0.00 0.00 0.00 45 1012.2
20180118121706 60 83 3.0 4.0 0.00 0.00 0.00 45 1012.3
20180118121407 61 94 2.0 4.0 0.00 0.00 0.00 45 1012.2
20180118120800 61 90 3.0 3.0 0.00 0.00 0.00 44 1012.1
20180118120458 61 90 1.0 3.0 0.00 0.00 0.00 44 1012.2
20180118120157 61 54 1.0 4.0 0.00 0.00 0.00 44 1012.1
20180118115856 61 94 2.0 5.0 0.00 0.00 0.00 44 1012.1
20180118115554 61 78 2.0 4.0 0.00 0.00 0.00 44 1012.2
20180118115254 61 92 2.0 4.0 0.00 0.00 0.00 44 1012.1
20180118114953 61 96 3.0 4.0 0.00 0.00 0.00 44 1012.3
20180118114650 61 94 3.0 3.0 0.00 0.00 0.00 44 1012.2
20180118114349 62 105 2.0 4.0 0.00 0.00 0.00 44 1012.3
20180118114050 62 92 4.0 4.0 0.00 0.00 0.00 44 1012.2
20180118113747 62 117 1.0 3.0 0.00 0.00 0.00 44 1012.1
20180118113446 62 110 2.0 4.0 0.00 0.00 0.00 43 1012.2
20180118113145 62 148 0.0 4.0 0.00 0.00 0.00 44 1012.3
20180118112844 62 101 2.0 3.0 0.00 0.00 0.00 44 1012.0
20180118112543 62 54 2.0 3.0 0.00 0.00 0.00 44 1012.4
20180118111940 62 74 2.0 3.0 0.00 0.00 0.00 44 1012.5
20180118111639 62 87 3.0 3.0 0.00 0.00 0.00 44 1012.4
20180118111339 62 105 2.0 4.0 0.00 0.00 0.00 43 1012.9
20180118111037 62 90 2.0 5.0 0.00 0.00 0.00 44 1012.6
20180118110736 62 85 3.0 5.0 0.00 0.00 0.00 44 1012.7
20180118110437 62 103 1.0 3.0 0.00 0.00 0.00 44 1012.5
20180118110134 62 99 3.0 3.0 0.00 0.00 0.00 43 1012.6
20180118105833 62 135 1.0 4.0 0.00 0.00 0.00 43 1012.5
20180118105532 62 148 1.0 4.0 0.00 0.00 0.00 43 1012.8
20180118105232 62 54 2.0 4.0 0.00 0.00 0.00 44 1012.7
20180118104931 62 108 3.0 4.0 0.00 0.00 0.00 43 1012.4
20180118104628 62 135 1.0 3.0 0.00 0.00 0.00 43 1012.6
20180118104026 62 85 1.0 2.0 0.00 0.00 0.00 43 1012.8
20180118103727 62 128 1.0 3.0 0.00 0.00 0.00 43 1012.6
20180118103424 62 135 2.0 3.0 0.00 0.00 0.00 43 1012.7
20180118103123 62 112 2.0 5.0 0.00 0.00 0.00 43 1012.7
20180118102822 62 81 2.0 4.0 0.00 0.00 0.00 43 1012.7
20180118102521 62 110 2.0 4.0 0.00 0.00 0.00 42 1012.6
20180118102219 62 123 2.0 4.0 0.00 0.00 0.00 43 1012.7
20180118101918 63 94 4.0 4.0 0.00 0.00 0.00 42 1012.7
20180118101617 63 205 0.0 4.0 0.00 0.00 0.00 43 1013.0
20180118101316 63 96 3.0 4.0 0.00 0.00 0.00 42 1013.0
20180118101017 63 92 1.0 4.0 0.00 0.00 0.00 42 1013.0
20180118100714 63 112 3.0 4.0 0.00 0.00 0.00 42 1012.9
20180118100413 63 76 1.0 6.0 0.00 0.00 0.00 42 1012.8
20180118100112 63 85 4.0 6.0 0.00 0.00 0.00 42 1012.6
20180118095811 63 85 4.0 4.0 0.00 0.00 0.00 42 1012.8
20180118095510 63 70 1.0 4.0 0.00 0.00 0.00 42 1013.1
20180118095208 63 90 3.0 5.0 0.00 0.00 0.00 42 1012.9
20180118094909 63 96 2.0 4.0 0.00 0.00 0.00 42 1012.8
20180118094305 63 85 3.0 4.0 0.00 0.00 0.00 42 1013.0
20180118093703 63 153 1.0 4.0 0.00 0.00 0.00 41 1013.2
20180118093402 63 94 1.0 1.0 0.00 0.00 0.00 41 1013.5
20180118093101 63 213 0.0 3.0 0.00 0.00 0.00 41 1013.4
20180118092759 63 135 2.0 3.0 0.00 0.00 0.00 41 1013.3
20180118092458 63 83 2.0 2.0 0.00 0.00 0.00 41 1013.3
20180118092158 64 114 2.0 3.0 0.00 0.00 0.00 41 1013.3
20180118091856 64 234 1.0 3.0 0.00 0.00 0.00 41 1013.3
20180118091557 64 135 1.0 5.0 0.00 0.00 0.00 41 1013.2
20180118091254 64 85 5.0 5.0 0.00 0.00 0.00 40 1013.2
20180118090953 64 119 2.0 4.0 0.00 0.00 0.00 41 1013.4
20180118090652 64 85 2.0 2.0 0.00 0.00 0.00 40 1013.2
20180118085146 65 146 2.0 3.0 0.00 0.00 0.00 40 1013.2
20180118084846 65 119 2.0 4.0 0.00 0.00 0.00 40 1013.3
20180118084544 65 123 4.0 4.0 0.00 0.00 0.00 40 1013.2
20180118084244 65 139 2.0 4.0 0.00 0.00 0.00 39 1013.1
20180118083943 65 218 0.0 2.0 0.00 0.00 0.00 40 1013.3
20180118083641 65 135 2.0 3.0 0.00 0.00 0.00 39 1013.1
20180118083340 65 153 2.0 3.0 0.00 0.00 0.00 39 1013.2
20180118083040 65 180 2.0 3.0 0.00 0.00 0.00 39 1013.3
20180118082737 65 135 2.0 3.0 0.00 0.00 0.00 39 1013.4
20180118082438 66 130 3.0 3.0 0.00 0.00 0.00 39 1013.4
20180118082135 66 171 1.0 4.0 0.00 0.00 0.00 39 1013.5
20180118081834 66 144 2.0 4.0 0.00 0.00 0.00 39 1013.4
20180118081533 66 188 1.0 4.0 0.00 0.00 0.00 39 1013.4
20180118081233 66 162 1.0 3.0 0.00 0.00 0.00 38 1013.4
20180118080931 66 135 1.0 3.0 0.00 0.00 0.00 38 1013.5
20180118080631 66 180 1.0 2.0 0.00 0.00 0.00 38 1013.4
20180118080330 66 225 1.0 2.0 0.00 0.00 0.00 38 1013.4
20180118080029 67 213 0.0 2.0 0.00 0.00 0.00 38 1013.4
20180118075728 67 135 1.0 1.0 0.00 0.00 0.00 38 1013.4
20180118075426 67 180 2.0 4.0 0.00 0.00 0.00 38 1013.3
20180118074825 67 92 3.0 5.0 0.00 0.00 0.00 38 1013.4
20180118074523 67 123 3.0 5.0 0.00 0.00 0.00 37 1013.4
20180118074231 67 112 4.0 7.0 0.00 0.00 0.00 38 1013.3
20180118073922 67 110 4.0 7.0 0.00 0.00 0.00 37 1013.4
20180118073620 67 121 6.0 7.0 0.00 0.00 0.00 37 1013.3
20180118073322 67 105 4.0 7.0 0.00 0.00 0.00 37 1013.2
20180118073018 68 101 6.0 7.0 0.00 0.00 0.00 37 1013.2
20180118072716 68 119 6.0 6.0 0.00 0.00 0.00 37 1013.3
20180118072415 68 92 5.0 5.0 0.00 0.00 0.00 37 1013.4
20180118072114 68 99 2.0 4.0 0.00 0.00 0.00 37 1013.5
20180118071815 68 162 0.0 5.0 0.00 0.00 0.00 37 1013.5
20180118071512 68 117 1.0 5.0 0.00 0.00 0.00 37 1013.5
20180118071213 68 117 2.0 7.0 0.00 0.00 0.00 36 1013.5
20180118070912 68 150 1.0 7.0 0.00 0.00 0.00 37 1013.6
20180118070307 67 42 4.0 9.0 0.00 0.00 0.00 37 1013.4
20180118070008 67 63 6.0 9.0 0.00 0.00 0.00 37 1013.5
20180118065706 67 59 6.0 6.0 0.00 0.00 0.00 37 1013.5
20180118065405 67 78 3.0 7.0 0.00 0.00 0.00 37 1013.5
20180118065102 67 90 4.0 7.0 0.00 0.00 0.00 37 1013.4
20180118064802 67 85 6.0 6.0 0.00 0.00 0.00 37 1013.6
20180118064501 67 126 1.0 5.0 0.00 0.00 0.00 37 1013.6
20180118063858 68 263 0.0 3.0 0.00 0.00 0.00 36 1013.8
20180118063558 68 166 0.0 5.0 0.00 0.00 0.00 37 1013.7
20180118063257 68 232 1.0 4.0 0.00 0.00 0.00 37 1013.7
20180118062956 68 155 1.0 11.0 0.00 0.00 0.00 38 1013.6
20180118062657 68 69 7.0 11.0 0.00 0.00 0.00 36 1013.7
20180118062355 68 69 8.0 13.0 0.00 0.00 0.00 37 1013.6
20180118062052 68 37 6.0 8.0 0.00 0.00 0.00 37 1013.6
20180118061751 68 255 1.0 8.0 0.00 0.00 0.00 37 1013.7
20180118061451 68 67 5.0 7.0 0.00 0.00 0.00 38 1013.7
20180118061149 68 211 0.0 5.0 0.00 0.00 0.00 37 1013.8
20180118060547 69 276 1.0 5.0 0.00 0.00 0.00 37 1013.9
20180118060246 69 20 3.0 5.0 0.00 0.00 0.00 37 1013.9
20180118055946 69 80 4.0 4.0 0.00 0.00 0.00 36 1014.0
20180118055342 69 51 3.0 10.0 0.00 0.00 0.00 36 1013.9
20180118054740 69 19 7.0 11.0 0.00 0.00 0.00 36 1013.8
20180118054439 69 55 3.0 9.0 0.00 0.00 0.00 36 1013.9
20180118054138 69 65 4.0 13.0 0.00 0.00 0.00 36 1014.0
20180118053837 69 31 5.0 13.0 0.00 0.00 0.00 36 1013.9
20180118053536 69 38 11.0 11.0 0.00 0.00 0.00 36 1013.8
20180118053234 69 9 2.0 11.0 0.00 0.00 0.00 36 1013.9
20180118052631 68 47 8.0 15.0 0.00 0.00 0.00 37 1013.7
20180118052331 68 67 8.0 14.0 0.00 0.00 0.00 38 1013.6
20180118052030 68 37 9.0 14.0 0.00 0.00 0.00 38 1013.6
20180118051730 68 90 1.0 7.0 0.00 0.00 0.00 39 1013.6
20180118051428 68 5 3.0 8.0 0.00 0.00 0.00 39 1013.6
20180118051127 68 15 7.0 7.0 0.00 0.00 0.00 39 1013.6
20180118050826 68 130 2.0 8.0 0.00 0.00 0.00 40 1013.5
20180118050224 68 225 1.0 7.0 0.00 0.00 0.00 40 1013.6
20180118045923 68 126 2.0 12.0 0.00 0.00 0.00 41 1013.5
20180118045622 67 60 6.0 6.0 0.00 0.00 0.00 41 1013.5
20180118045320 67 144 1.0 6.0 0.00 0.00 0.00 42 1013.6
20180118045019 67 4 5.0 11.0 0.00 0.00 0.00 41 1013.6
20180118044718 67 65 6.0 11.0 0.00 0.00 0.00 41 1013.6
20180118044116 67 38 2.0 9.0 0.00 0.00 0.00 42 1013.6
20180118043815 67 128 2.0 10.0 0.00 0.00 0.00 42 1013.7
20180118043514 67 123 1.0 10.0 0.00 0.00 0.00 42 1013.8
20180118043213 67 93 2.0 6.0 0.00 0.00 0.00 43 1013.8
20180118042911 67 132 2.0 7.0 0.00 0.00 0.00 43 1013.7
20180118042609 67 198 1.0 4.0 0.00 0.00 0.00 43 1013.8
20180118042309 66 96 2.0 8.0 0.00 0.00 0.00 43 1013.7
20180118042008 66 56 7.0 12.0 0.00 0.00 0.00 43 1013.6
20180118041707 66 24 9.0 9.0 0.00 0.00 0.00 44 1013.7
20180118041104 65 30 6.0 10.0 0.00 0.00 0.00 44 1013.4
20180118040804 64 22 6.0 11.0 0.00 0.00 0.00 44 1013.5
20180118040503 64 45 7.0 11.0 0.00 0.00 0.00 46 1013.7
20180118040201 63 315 3.0 8.0 0.00 0.00 0.00 49 1013.6
20180118035600 62 54 5.0 6.0 0.00 0.00 0.00 50 1013.6
20180118035258 62 47 1.0 4.0 0.00 0.00 0.00 53 1013.6
20180118034658 61 283 1.0 2.0 0.00 0.00 0.00 56 1013.5
20180118034355 61 225 0.0 2.0 0.00 0.00 0.00 58 1013.3
20180118034054 61 188 0.0 2.0 0.00 0.00 0.00 58 1013.6
20180118033756 61 119 2.0 6.0 0.00 0.00 0.00 59 1013.5
20180118033452 62 51 1.0 2.0 0.00 0.00 0.00 61 1013.4
20180118032851 62 135 2.0 3.0 0.00 0.00 0.00 61 1013.3
20180118032548 62 112 1.0 3.0 0.00 0.00 0.00 60 1013.4
20180118031645 61 105 2.0 4.0 0.00 0.00 0.00 61 1013.5
20180118031344 61 137 1.0 3.0 0.00 0.00 0.00 61 1013.6
20180118031043 61 94 2.0 3.0 0.00 0.00 0.00 61 1013.6
20180118030741 61 96 3.0 3.0 0.00 0.00 0.00 60 1013.6
20180118030441 60 90 1.0 5.0 0.00 0.00 0.00 62 1013.6
20180118030139 60 195 0.0 5.0 0.00 0.00 0.00 63 1013.7
20180118025839 60 36 3.0 8.0 0.00 0.00 0.00 61 1013.7
20180118024935 60 324 1.0 1.0 0.00 0.00 0.00 65 1013.8
20180118024633 60 225 0.0 1.0 0.00 0.00 0.00 65 1013.7
20180118024333 60 220 0.0 2.0 0.00 0.00 0.00 65 1013.9
20180118024032 60 225 0.0 2.0 0.00 0.00 0.00 65 1013.8
20180118023730 60 247 0.0 1.0 0.00 0.00 0.00 64 1013.9
20180118023429 61 339 1.0 1.0 0.00 0.00 0.00 64 1013.8
20180118023128 61 225 0.0 1.0 0.00 0.00 0.00 63 1013.8
20180118022224 61 270 0.0 2.0 0.00 0.00 0.00 64 1013.6
20180118021924 61 270 1.0 2.0 0.00 0.00 0.00 63 1013.5
20180118021621 61 270 0.0 2.0 0.00 0.00 0.00 63 1013.5
20180118021021 62 135 1.0 1.0 0.00 0.00 0.00 61 1013.5
20180118020419 62 225 0.0 1.0 0.00 0.00 0.00 61 1013.5
20180118015815 62 315 1.0 1.0 0.00 0.00 0.00 61 1013.4
20180118014913 63 97 0.0 2.0 0.00 0.00 0.00 59 1013.7
20180118014611 63 225 0.0 1.0 0.00 0.00 0.00 58 1013.6
20180118014010 63 180 0.0 2.0 0.00 0.00 0.00 58 1013.7
20180118013707 64 180 0.0 2.0 0.00 0.00 0.00 57 1013.7
20180118013407 64 222 0.0 2.0 0.00 0.00 0.00 58 1013.7
20180118012805 65 220 0.0 2.0 0.00 0.00 0.00 56 1013.8
20180118012503 65 225 0.0 1.0 0.00 0.00 0.00 56 1013.8
20180118012203 65 222 0.0 1.0 0.00 0.00 0.00 56 1013.8
20180118011901 66 180 1.0 1.0 0.00 0.00 0.00 56 1013.9
20180118011559 66 225 0.0 0.0 0.00 0.00 0.00 55 1013.7
20180118011300 66 225 0.0 3.0 0.00 0.00 0.00 55 1013.7
20180118010957 67 261 2.0 3.0 0.00 0.00 0.00 57 1013.9
20180118010657 67 270 1.0 1.0 0.00 0.00 0.00 55 1013.6
20180118010355 67 236 0.0 1.0 0.00 0.00 0.00 55 1013.7
20180118010055 67 238 1.0 1.0 0.00 0.00 0.00 54 1013.5
20180118005453 68 225 0.0 1.0 0.00 0.00 0.00 54 1013.6
20180118005151 69 225 0.0 1.0 0.00 0.00 0.00 54 1013.7
20180118004850 69 240 1.0 1.0 0.00 0.00 0.00 54 1013.8
20180118004550 69 229 0.0 2.0 0.00 0.00 0.00 54 1013.8
20180118003947 69 247 1.0 4.0 0.00 0.00 0.00 54 1013.8
20180118003646 70 263 3.0 4.0 0.00 0.00 0.00 53 1013.8
20180118003044 70 267 4.0 5.0 0.00 0.00 0.00 52 1013.7
20180118002745 70 263 3.0 4.0 0.00 0.00 0.00 52 1013.5
20180118002442 70 256 3.0 4.0 0.00 0.00 0.00 52 1013.5
20180118002141 70 231 1.0 3.0 0.00 0.00 0.00 51 1013.6
20180118001839 71 263 3.0 3.0 0.00 0.00 0.00 51 1013.6
20180118001238 71 243 3.0 3.0 0.00 0.00 0.00 51 1013.7
20180118000936 71 261 3.0 5.0 0.00 0.00 0.00 50 1013.7
20180118000334 72 263 2.0 5.0 0.00 0.00 0.00 49 1013.8
20180118000033 72 267 3.0 5.0 0.00 0.00 0.00 48 1013.7
20180117235732 72 256 3.0 5.0 0.00 0.00 0.00 48 1013.7
20180117235432 73 263 5.0 8.0 0.00 0.00 0.00 47 1013.7
20180117235129 73 256 3.0 5.0 0.00 0.00 0.00 47 1013.8
20180117234829 74 247 4.0 7.0 0.00 0.00 0.00 46 1013.8
20180117234528 74 267 6.0 7.0 0.00 0.00 0.00 45 1013.8
20180117234227 74 254 3.0 7.0 0.00 0.00 0.00 45 1013.9
20180117233925 75 261 3.0 6.0 0.00 0.00 0.00 44 1013.8
20180117233624 75 236 3.0 6.0 0.00 0.00 0.00 44 1013.8
20180117233323 75 265 4.0 6.0 0.00 0.00 0.00 43 1013.7
20180117232722 76 254 5.0 6.0 0.00 0.00 0.00 42 1013.7
20180117232419 77 263 6.0 7.0 0.00 0.00 0.00 41 1013.6
20180117231817 78 261 4.0 7.0 0.00 0.00 0.00 40 1013.7
20180117231517 79 254 3.0 8.0 0.00 0.00 0.00 40 1013.7
20180117231216 79 267 4.0 8.0 0.00 0.00 0.00 39 1013.7
20180117230915 80 245 4.0 8.0 0.00 0.00 0.00 39 1013.6
20180117230613 80 267 5.0 8.0 0.00 0.00 0.00 38 1013.4
20180117230312 81 267 4.0 4.0 0.00 0.00 0.00 37 1013.5
20180117230011 81 256 4.0 5.0 0.00 0.00 0.00 37 1013.5
20180117225410 81 256 4.0 4.0 0.00 0.00 0.00 37 1013.6
20180117225109 81 256 1.0 3.0 0.00 0.00 0.00 37 1013.5
20180117224806 81 245 1.0 5.0 0.00 0.00 0.00 37 1013.6
20180117224506 81 265 4.0 5.0 0.00 0.00 0.00 36 1013.6
20180117224205 81 238 1.0 5.0 0.00 0.00 0.00 35 1013.6
20180117223903 81 288 5.0 5.0 0.00 0.00 0.00 35 1013.5
20180117223602 81 256 3.0 7.0 0.00 0.00 0.00 35 1013.5
20180117223301 82 256 5.0 7.0 0.00 0.00 0.00 34 1013.5
20180117223000 82 263 4.0 9.0 0.00 0.00 0.00 34 1013.6
20180117222358 83 267 6.0 8.0 0.00 0.00 0.00 30 1014.0
20180117222057 83 60 6.0 6.0 0.00 0.00 0.00 26 1014.0
20180117221755 83 351 2.0 8.0 0.00 0.00 0.00 26 1013.7
20180117221455 83 47 5.0 8.0 0.00 0.00 0.00 26 1013.7
20180117221153 83 0 4.0 6.0 0.00 0.00 0.00 26 1013.6
20180117220853 83 339 5.0 9.0 0.00 0.00 0.00 25 1013.7
20180117220551 83 22 6.0 11.0 0.00 0.00 0.00 25 1013.6
20180117220250 83 350 3.0 4.0 0.00 0.00 0.00 26 1013.7
20180117215948 83 33 4.0 10.0 0.00 0.00 0.00 25 1013.7
20180117215649 83 20 10.0 12.0 0.00 0.00 0.00 25 1013.7
20180117215348 83 31 6.0 13.0 0.00 0.00 0.00 25 1013.6
20180117214745 83 78 6.0 11.0 0.00 0.00 0.00 26 1013.8
20180117214443 83 56 7.0 10.0 0.00 0.00 0.00 26 1013.8
20180117214143 83 356 3.0 10.0 0.00 0.00 0.00 27 1013.9
20180117213841 83 103 4.0 7.0 0.00 0.00 0.00 27 1013.9
20180117213540 83 87 5.0 7.0 0.00 0.00 0.00 27 1013.7
20180117213239 83 177 1.0 7.0 0.00 0.00 0.00 27 1013.8
20180117212938 83 119 5.0 5.0 0.00 0.00 0.00 28 1013.8
20180117212637 83 27 1.0 10.0 0.00 0.00 0.00 27 1013.8
20180117212336 82 83 7.0 7.0 0.00 0.00 0.00 28 1013.8
20180117212036 82 150 1.0 9.0 0.00 0.00 0.00 28 1013.9
20180117211734 82 324 5.0 12.0 0.00 0.00 0.00 27 1013.9
20180117211433 81 40 6.0 12.0 0.00 0.00 0.00 27 1014.0
20180117211131 81 81 3.0 8.0 0.00 0.00 0.00 29 1014.0
20180117210830 81 0 3.0 6.0 0.00 0.00 0.00 28 1014.1
20180117210531 81 324 2.0 10.0 0.00 0.00 0.00 28 1014.2
20180117210228 81 15 7.0 10.0 0.00 0.00 0.00 27 1014.3
20180117205927 81 49 9.0 10.0 0.00 0.00 0.00 28 1014.3
20180117205320 80 50 4.0 8.0 0.00 0.00 0.00 29 1014.4
20180117205019 80 80 3.0 10.0 0.00 0.00 0.00 29 1014.4
20180117204718 80 67 9.0 10.0 0.00 0.00 0.00 28 1014.5
20180117204416 80 72 6.0 11.0 0.00 0.00 0.00 28 1014.5
20180117203814 80 45 10.0 15.0 0.00 0.00 0.00 28 1014.6
20180117203513 80 60 11.0 13.0 0.00 0.00 0.00 28 1014.7
20180117203212 80 33 9.0 12.0 0.00 0.00 0.00 29 1014.7
20180117202911 80 30 6.0 7.0 0.00 0.00 0.00 29 1014.8
20180117202610 79 205 0.0 6.0 0.00 0.00 0.00 30 1014.8
20180117202309 79 180 0.0 10.0 0.00 0.00 0.00 30 1014.7
20180117202008 79 81 8.0 14.0 0.00 0.00 0.00 30 1014.9
20180117201707 79 87 14.0 14.0 0.00 0.00 0.00 29 1014.7
20180117201405 78 72 5.0 12.0 0.00 0.00 0.00 30 1014.8
20180117200501 78 5 1.0 13.0 0.00 0.00 0.00 31 1015.1